Time,TemperatureF,DewpointF,PressureIn,WindDirection,WindDirectionDegrees,WindSpeedMPH,WindSpeedGustMPH,Humidity,HourlyPrecipIn,Conditions,Clouds,dailyrainin,SoftwareType,DateUTC
2013-01-04 00:00:00,68.7,57.7,29.44,East,90,0.0,0.0,68,0.00,CLR,,0.00,WeatherDisplay:10.37,2013-01-03 13:00:00,
2013-01-04 00:05:00,68.5,57.6,29.44,ENE,68,0.0,0.0,68,0.00,CLR,,0.00,WeatherDisplay:10.37,2013-01-03 13:05:00,
2013-01-04 00:10:00,68.5,57.1,29.44,SSE,158,0.0,0.0,67,0.00,CLR,,0.00,WeatherDisplay:10.37,2013-01-03 13:10:00,
2013-01-04 00:15:00,68.4,57.4,29.44,East,90,0.0,0.0,68,0.00,CLR,,0.00,WeatherDisplay:10.37,2013-01-03 13:15:00,
2013-01-04 00:20:00,68.2,57.2,29.44,ESE,112,0.0,0.0,68,0.00,CLR,,0.00,WeatherDisplay:10.37,2013-01-03 13:20:00,
2013-01-04 00:25:00,68.0,57.0,29.44,SSE,158,0.0,0.0,68,0.00,CLR,,0.00,WeatherDisplay:10.37,2013-01-03 13:25:00,
2013-01-04 00:30:00,67.8,56.9,29.44,SE,135,0.0,0.0,68,0.00,CLR,,0.00,WeatherDisplay:10.37,2013-01-03 13:30:00,
2013-01-04 00:35:00,67.6,57.1,29.44,SW,225,0.0,0.0,69,0.00,CLR,,0.00,WeatherDisplay:10.37,2013-01-03 13:35:00,
2013-01-04 00:40:00,67.6,57.1,29.44,SE,135,0.0,0.0,69,0.00,CLR,,0.00,WeatherDisplay:10.37,2013-01-03 13:40:00,
2013-01-04 00:45:00,67.6,57.1,29.44,South,180,0.0,0.0,69,0.00,CLR,,0.00,WeatherDisplay:10.37,2013-01-03 13:45:00,
2013-01-04 00:50:00,67.5,56.9,29.44,SSE,158,0.0,0.0,69,0.00,CLR,,0.00,WeatherDisplay:10.37,2013-01-03 13:50:00,
2013-01-04 00:55:00,67.5,56.9,29.44,South,180,0.0,0.0,69,0.00,CLR,,0.00,WeatherDisplay:10.37,2013-01-03 13:55:00,
2013-01-04 01:00:00,67.3,56.8,29.44,West,270,0.0,0.0,69,0.00,CLR,,0.00,WeatherDisplay:10.37,2013-01-03 14:00:00,
2013-01-04 01:05:00,67.1,56.6,29.41,SSW,202,0.0,0.0,69,0.00,CLR,,0.00,WeatherDisplay:10.37,2013-01-03 14:05:00,
2013-01-04 01:10:00,67.1,56.6,29.41,NW,315,0.0,0.0,69,0.00,CLR,,0.00,WeatherDisplay:10.37,2013-01-03 14:10:00,
2013-01-04 01:15:00,66.9,56.4,29.41,WSW,248,0.0,0.0,69,0.00,CLR,,0.00,WeatherDisplay:10.37,2013-01-03 14:15:00,
2013-01-04 01:20:00,66.7,56.2,29.41,WSW,248,0.0,0.0,69,0.00,CLR,,0.00,WeatherDisplay:10.37,2013-01-03 14:20:00,
2013-01-04 01:25:00,66.7,56.6,29.41,NW,315,0.0,0.0,70,0.00,CLR,,0.00,WeatherDisplay:10.37,2013-01-03 14:25:00,
2013-01-04 01:30:00,66.6,56.5,29.41,NNE,22,0.0,0.0,70,0.00,CLR,,0.00,WeatherDisplay:10.37,2013-01-03 14:30:00,
2013-01-04 01:35:00,66.4,56.3,29.44,NW,315,0.0,0.0,70,0.00,CLR,,0.00,WeatherDisplay:10.37,2013-01-03 14:35:00,
2013-01-04 01:40:00,66.2,56.1,29.44,NW,315,0.0,0.0,70,0.00,CLR,,0.00,WeatherDisplay:10.37,2013-01-03 14:40:00,
2013-01-04 01:45:00,66.2,56.1,29.44,West,277,0.0,0.0,70,0.00,CLR,,0.00,WeatherDisplay:10.37,2013-01-03 14:45:00,
2013-01-04 01:50:00,66.2,56.1,29.44,ENE,68,0.0,0.0,70,0.00,CLR,,0.00,WeatherDisplay:10.37,2013-01-03 14:50:00,
2013-01-04 01:55:00,66.0,56.0,29.44,West,270,0.0,0.0,70,0.00,CLR,,0.00,WeatherDisplay:10.37,2013-01-03 14:55:00,
2013-01-04 02:00:00,66.0,56.3,29.44,West,273,0.0,0.0,71,0.00,CLR,,0.00,WeatherDisplay:10.37,2013-01-03 15:00:00,
2013-01-04 02:05:00,66.0,56.3,29.44,SW,225,0.0,0.0,71,0.00,CLR,,0.00,WeatherDisplay:10.37,2013-01-03 15:05:00,
2013-01-04 02:10:00,66.0,56.3,29.44,WSW,248,0.0,0.0,71,0.00,CLR,,0.00,WeatherDisplay:10.37,2013-01-03 15:10:00,
2013-01-04 02:15:00,65.8,56.6,29.44,West,259,0.0,0.0,72,0.00,CLR,,0.00,WeatherDisplay:10.37,2013-01-03 15:15:00,
2013-01-04 02:20:00,65.7,56.0,29.44,South,180,0.0,0.0,71,0.00,CLR,,0.00,WeatherDisplay:10.37,2013-01-03 15:20:00,
2013-01-04 02:25:00,65.5,56.2,29.44,ESE,112,0.0,0.0,72,0.00,CLR,,0.00,WeatherDisplay:10.37,2013-01-03 15:25:00,
2013-01-04 02:30:00,65.3,55.7,29.44,East,82,0.0,0.0,71,0.00,CLR,,0.00,WeatherDisplay:10.37,2013-01-03 15:30:00,
2013-01-04 02:35:00,65.1,55.5,29.44,East,90,0.0,0.0,71,0.00,CLR,,0.00,WeatherDisplay:10.37,2013-01-03 15:35:00,
2013-01-04 02:40:00,65.1,55.5,29.44,SSE,158,0.0,0.0,71,0.00,CLR,,0.00,WeatherDisplay:10.37,2013-01-03 15:40:00,
2013-01-04 02:45:00,64.9,55.3,29.44,SE,128,0.0,0.0,71,0.00,CLR,,0.00,WeatherDisplay:10.37,2013-01-03 15:45:00,
2013-01-04 02:50:00,64.8,55.5,29.47,East,90,0.0,0.0,72,0.00,CLR,,0.00,WeatherDisplay:10.37,2013-01-03 15:50:00,
2013-01-04 02:55:00,64.8,55.5,29.47,SSE,158,0.0,0.0,72,0.00,CLR,,0.00,WeatherDisplay:10.37,2013-01-03 15:55:00,
2013-01-04 03:00:00,64.6,55.3,29.47,ESE,108,0.0,0.0,72,0.00,CLR,,0.00,WeatherDisplay:10.37,2013-01-03 16:00:00,
2013-01-04 03:05:00,64.4,55.2,29.44,NE,45,0.0,0.0,72,0.00,CLR,,0.00,WeatherDisplay:10.37,2013-01-03 16:05:00,
2013-01-04 03:10:00,64.4,55.6,29.44,West,270,0.0,0.0,73,0.00,CLR,,0.00,WeatherDisplay:10.37,2013-01-03 16:10:00,
2013-01-04 03:15:00,64.4,55.2,29.44,WNW,285,0.0,0.0,72,0.00,CLR,,0.00,WeatherDisplay:10.37,2013-01-03 16:15:00,
2013-01-04 03:21:00,64.4,55.2,29.44,SE,135,0.0,0.0,72,0.00,CLR,,0.00,WeatherDisplay:10.37,2013-01-03 16:21:00,
2013-01-04 03:26:00,64.2,55.4,29.44,SE,135,0.0,0.0,73,0.00,CLR,,0.00,WeatherDisplay:10.37,2013-01-03 16:26:00,
2013-01-04 03:31:00,64.2,55.4,29.44,SSE,158,0.0,0.0,73,0.00,CLR,,0.00,WeatherDisplay:10.37,2013-01-03 16:31:00,
2013-01-04 03:36:00,64.2,55.4,29.44,SE,135,0.0,0.0,73,0.00,CLR,,0.00,WeatherDisplay:10.37,2013-01-03 16:36:00,
2013-01-04 03:41:00,64.0,54.8,29.44,South,180,0.0,0.0,72,0.00,CLR,,0.00,WeatherDisplay:10.37,2013-01-03 16:41:00,
2013-01-04 03:46:00,64.0,55.2,29.44,South,180,0.0,0.0,73,0.00,CLR,,0.00,WeatherDisplay:10.37,2013-01-03 16:46:00,
2013-01-04 03:51:00,63.9,55.0,29.44,ESE,112,0.0,0.0,73,0.00,CLR,,0.00,WeatherDisplay:10.37,2013-01-03 16:51:00,
2013-01-04 03:56:00,63.9,55.0,29.44,ESE,112,0.0,0.0,73,0.00,CLR,,0.00,WeatherDisplay:10.37,2013-01-03 16:56:00,
2013-01-04 04:01:00,63.7,54.9,29.44,ESE,112,0.0,0.0,73,0.00,CLR,,0.00,WeatherDisplay:10.37,2013-01-03 17:01:00,
2013-01-04 04:06:00,63.5,54.7,29.44,ESE,112,0.0,0.0,73,0.00,CLR,,0.00,WeatherDisplay:10.37,2013-01-03 17:06:00,
2013-01-04 04:11:00,63.3,54.5,29.44,SSE,158,0.0,0.0,73,0.00,CLR,,0.00,WeatherDisplay:10.37,2013-01-03 17:11:00,
2013-01-04 04:16:00,63.3,54.5,29.44,SSE,158,0.0,0.0,73,0.00,CLR,,0.00,WeatherDisplay:10.37,2013-01-03 17:16:00,
2013-01-04 04:21:00,63.1,54.3,29.44,SSW,202,0.0,0.0,73,0.00,CLR,,0.00,WeatherDisplay:10.37,2013-01-03 17:21:00,
2013-01-04 04:26:00,63.3,54.9,29.44,East,90,0.0,0.0,74,0.00,CLR,,0.00,WeatherDisplay:10.37,2013-01-03 17:26:00,
2013-01-04 04:31:00,63.1,54.7,29.44,ENE,68,0.0,0.0,74,0.00,CLR,,0.00,WeatherDisplay:10.37,2013-01-03 17:31:00,
2013-01-04 04:36:00,63.1,54.7,29.41,West,270,0.0,0.0,74,0.00,CLR,,0.00,WeatherDisplay:10.37,2013-01-03 17:36:00,
2013-01-04 04:41:00,63.1,54.7,29.41,WNW,292,0.0,0.0,74,0.00,CLR,,0.00,WeatherDisplay:10.37,2013-01-03 17:41:00,
2013-01-04 04:46:00,63.1,54.7,29.41,West,270,0.0,0.0,74,0.00,CLR,,0.00,WeatherDisplay:10.37,2013-01-03 17:46:00,
2013-01-04 04:51:00,63.1,55.1,29.44,West,270,0.0,0.0,75,0.00,CLR,,0.00,WeatherDisplay:10.37,2013-01-03 17:51:00,
2013-01-04 04:56:00,63.1,55.1,29.44,SSW,202,0.0,0.0,75,0.00,CLR,,0.00,WeatherDisplay:10.37,2013-01-03 17:56:00,
2013-01-04 05:01:00,63.0,54.5,29.44,SSW,202,0.0,0.0,74,0.00,CLR,,0.00,WeatherDisplay:10.37,2013-01-03 18:01:00,
2013-01-04 05:06:00,63.0,54.5,29.44,SW,225,0.0,0.0,74,0.00,CLR,,0.00,WeatherDisplay:10.37,2013-01-03 18:06:00,
2013-01-04 05:11:00,63.0,54.5,29.44,SSE,158,0.0,0.0,74,0.00,CLR,,0.00,WeatherDisplay:10.37,2013-01-03 18:11:00,
2013-01-04 05:16:00,63.0,54.5,29.44,NE,45,0.0,0.0,74,0.00,CLR,,0.00,WeatherDisplay:10.37,2013-01-03 18:16:00,
2013-01-04 05:21:00,62.6,54.2,29.44,ENE,68,0.0,0.0,74,0.00,CLR,,0.00,WeatherDisplay:10.37,2013-01-03 18:21:00,
2013-01-04 05:26:00,62.4,54.4,29.44,ENE,68,0.0,0.0,75,0.00,CLR,,0.00,WeatherDisplay:10.37,2013-01-03 18:26:00,
2013-01-04 05:31:00,62.4,54.4,29.44,SE,135,0.0,0.0,75,0.00,CLR,,0.00,WeatherDisplay:10.37,2013-01-03 18:31:00,
2013-01-04 05:36:00,62.4,54.4,29.47,South,180,0.0,0.0,75,0.00,CLR,,0.00,WeatherDisplay:10.37,2013-01-03 18:36:00,
2013-01-04 05:41:00,62.4,54.4,29.47,South,180,0.0,0.0,75,0.00,CLR,,0.00,WeatherDisplay:10.37,2013-01-03 18:41:00,
2013-01-04 05:46:00,62.4,54.8,29.47,East,90,0.0,0.0,76,0.00,CLR,,0.00,WeatherDisplay:10.37,2013-01-03 18:46:00,
2013-01-04 05:51:00,62.2,54.6,29.47,ENE,68,0.0,0.0,76,0.00,CLR,,0.00,WeatherDisplay:10.37,2013-01-03 18:51:00,
2013-01-04 05:56:00,62.2,54.6,29.47,ENE,68,0.0,0.0,76,0.00,CLR,,0.00,WeatherDisplay:10.37,2013-01-03 18:56:00,
2013-01-04 06:01:00,62.1,54.4,29.47,ENE,68,0.0,0.0,76,0.00,CLR,,0.00,WeatherDisplay:10.37,2013-01-03 19:01:00,
2013-01-04 06:06:00,62.1,54.4,29.47,SSE,158,0.0,0.0,76,0.00,CLR,,0.00,WeatherDisplay:10.37,2013-01-03 19:06:00,
2013-01-04 06:11:00,62.2,54.6,29.47,SSE,158,0.0,0.0,76,0.00,CLR,,0.00,WeatherDisplay:10.37,2013-01-03 19:11:00,
2013-01-04 06:16:00,62.1,54.4,29.47,SSE,158,0.0,0.0,76,0.00,CLR,,0.00,WeatherDisplay:10.37,2013-01-03 19:16:00,
2013-01-04 06:57:00,62.6,55.6,29.50,WNW,292,0.0,0.0,78,0.00,CLR,,0.00,WeatherDisplay:10.37,2013-01-03 19:57:00,
2013-01-04 07:02:00,62.8,55.8,29.47,WNW,292,0.0,0.0,78,0.00,CLR,,0.00,WeatherDisplay:10.37,2013-01-03 20:02:00,
2013-01-04 07:07:00,63.0,56.0,29.47,NNE,22,1.2,0.0,78,0.00,CLR,,0.00,WeatherDisplay:10.37,2013-01-03 20:07:00,
2013-01-04 07:12:00,63.1,56.5,29.47,NW,315,0.0,0.0,79,0.00,CLR,,0.00,WeatherDisplay:10.37,2013-01-03 20:12:00,
2013-01-04 07:17:00,63.3,56.7,29.50,NNE,22,0.0,0.0,79,0.00,CLR,,0.00,WeatherDisplay:10.37,2013-01-03 20:17:00,
2013-01-04 07:22:00,63.5,56.9,29.50,North,0,0.0,0.0,79,0.00,CLR,,0.00,WeatherDisplay:10.37,2013-01-03 20:22:00,
2013-01-04 07:27:00,63.9,57.2,29.50,North,0,0.0,0.0,79,0.00,CLR,,0.00,WeatherDisplay:10.37,2013-01-03 20:27:00,
2013-01-04 07:32:00,64.2,57.6,29.50,North,0,0.0,0.0,79,0.00,CLR,,0.00,WeatherDisplay:10.37,2013-01-03 20:32:00,
2013-01-04 07:37:00,64.2,57.6,29.50,NNE,22,0.0,0.0,79,0.00,CLR,,0.00,WeatherDisplay:10.37,2013-01-03 20:37:00,
2013-01-04 07:42:00,64.6,57.9,29.50,WNW,292,0.0,0.0,79,0.00,CLR,,0.00,WeatherDisplay:10.37,2013-01-03 20:42:00,
2013-01-04 07:47:00,65.1,58.4,29.50,East,90,2.3,0.0,79,0.00,CLR,,0.00,WeatherDisplay:10.37,2013-01-03 20:47:00,
2013-01-04 07:52:00,65.7,59.3,29.50,WNW,292,0.0,0.0,80,0.00,CLR,,0.00,WeatherDisplay:10.37,2013-01-03 20:52:00,
2013-01-04 07:57:00,66.2,59.5,29.50,ESE,112,0.0,0.0,79,0.00,CLR,,0.00,WeatherDisplay:10.37,2013-01-03 20:57:00,
2013-01-04 08:02:00,67.3,60.5,29.50,NNW,338,0.0,0.0,79,0.00,CLR,,0.00,WeatherDisplay:10.37,2013-01-03 21:02:00,
2013-01-04 08:07:00,68.5,61.4,29.50,SE,135,2.0,0.0,78,0.00,CLR,,0.00,WeatherDisplay:10.37,2013-01-03 21:07:00,
2013-01-04 08:12:00,69.4,62.3,29.50,SE,135,0.0,0.0,78,0.00,CLR,,0.00,WeatherDisplay:10.37,2013-01-03 21:12:00,
2013-01-04 08:17:00,70.7,62.4,29.50,East,90,2.3,2.4,75,0.00,CLR,,0.00,WeatherDisplay:10.37,2013-01-03 21:17:00,
2013-01-04 08:22:00,71.8,62.7,29.50,NE,45,2.4,2.4,73,0.00,CLR,,0.00,WeatherDisplay:10.37,2013-01-03 21:22:00,
2013-01-04 08:27:00,72.3,62.4,29.50,ENE,68,3.5,3.5,71,0.00,CLR,,0.00,WeatherDisplay:10.37,2013-01-03 21:27:00,
2013-01-04 08:34:00,72.5,62.6,29.50,North,0,2.3,0.0,71,0.00,CLR,,0.00,WeatherDisplay:10.37,2013-01-03 21:34:00,
2013-01-04 08:39:00,72.5,62.6,29.50,ENE,68,1.2,0.0,71,0.00,CLR,,0.00,WeatherDisplay:10.37,2013-01-03 21:39:00,
2013-01-04 08:44:00,74.3,63.1,29.50,NE,45,1.2,3.3,68,0.00,CLR,,0.00,WeatherDisplay:10.37,2013-01-03 21:44:00,
2013-01-04 08:49:00,75.0,62.5,29.47,ENE,68,0.0,0.0,65,0.00,CLR,,0.00,WeatherDisplay:10.37,2013-01-03 21:49:00,
2013-01-04 08:54:00,75.7,63.1,29.47,ENE,68,2.3,0.0,65,0.00,CLR,,0.00,WeatherDisplay:10.37,2013-01-03 21:54:00,
2013-01-04 08:59:00,76.3,62.8,29.47,ENE,68,3.5,3.5,63,0.00,CLR,,0.00,WeatherDisplay:10.37,2013-01-03 21:59:00,
2013-01-04 09:04:00,77.4,63.3,29.47,East,90,3.1,3.1,62,0.00,CLR,,0.00,WeatherDisplay:10.37,2013-01-03 22:04:00,
2013-01-04 09:09:00,77.4,62.4,29.47,ESE,112,5.8,5.8,60,0.00,CLR,,0.00,WeatherDisplay:10.37,2013-01-03 22:09:00,
2013-01-04 09:14:00,78.3,63.2,29.47,NE,45,2.3,0.0,60,0.00,CLR,,0.00,WeatherDisplay:10.37,2013-01-03 22:14:00,
2013-01-04 09:19:00,79.0,62.9,29.47,NE,45,4.6,4.6,58,0.00,CLR,,0.00,WeatherDisplay:10.37,2013-01-03 22:19:00,
2013-01-04 09:24:00,79.5,62.9,29.47,NNE,22,4.6,4.6,57,0.00,CLR,,0.00,WeatherDisplay:10.37,2013-01-03 22:24:00,
2013-01-04 09:29:00,80.1,62.9,29.47,NNE,22,3.5,3.5,56,0.00,CLR,,0.00,WeatherDisplay:10.37,2013-01-03 22:29:00,
2013-01-04 09:34:00,80.8,63.1,29.44,ESE,112,5.8,5.8,55,0.00,CLR,,0.00,WeatherDisplay:10.37,2013-01-03 22:34:00,
2013-01-04 09:39:00,81.3,63.1,29.44,ENE,68,4.6,4.6,54,0.00,CLR,,0.00,WeatherDisplay:10.37,2013-01-03 22:39:00,
2013-01-04 09:44:00,81.9,62.0,29.44,East,90,3.5,3.6,51,0.00,CLR,,0.00,WeatherDisplay:10.37,2013-01-03 22:44:00,
2013-01-04 09:49:00,82.4,61.9,29.44,ESE,112,3.5,3.5,50,0.00,CLR,,0.00,WeatherDisplay:10.37,2013-01-03 22:49:00,
2013-01-04 09:54:00,83.7,62.5,29.44,NE,45,5.8,5.8,49,0.00,CLR,,0.00,WeatherDisplay:10.37,2013-01-03 22:54:00,
2013-01-04 09:59:00,83.3,60.4,29.44,NNE,22,4.6,4.6,46,0.00,CLR,,0.00,WeatherDisplay:10.37,2013-01-03 22:59:00,
2013-01-04 10:04:00,84.4,61.9,29.41,ESE,112,3.3,3.3,47,0.00,CLR,,0.00,WeatherDisplay:10.37,2013-01-03 23:04:00,
2013-01-04 10:09:00,85.1,61.4,29.41,ENE,68,6.9,6.9,45,0.00,CLR,,0.00,WeatherDisplay:10.37,2013-01-03 23:09:00,
2013-01-04 10:14:00,85.1,60.1,29.41,ENE,68,4.6,4.6,43,0.00,CLR,,0.00,WeatherDisplay:10.37,2013-01-03 23:14:00,
2013-01-04 10:19:00,86.0,60.2,29.44,SE,135,4.6,0.0,42,0.00,CLR,,0.00,WeatherDisplay:10.37,2013-01-03 23:19:00,
2013-01-04 10:24:00,87.4,60.8,29.44,NE,45,4.9,4.9,41,0.00,CLR,,0.00,WeatherDisplay:10.37,2013-01-03 23:24:00,
2013-01-04 10:29:00,87.3,59.3,29.44,NE,45,4.7,4.7,39,0.00,CLR,,0.00,WeatherDisplay:10.37,2013-01-03 23:29:00,
2013-01-04 10:35:00,87.8,59.0,29.38,NE,45,3.6,3.6,38,0.00,CLR,,0.00,WeatherDisplay:10.37,2013-01-03 23:35:00,
2013-01-04 10:40:00,88.0,57.7,29.38,NNE,22,3.5,3.5,36,0.00,CLR,,0.00,WeatherDisplay:10.37,2013-01-03 23:40:00,
2013-01-04 10:45:00,88.0,57.7,29.38,NE,45,2.6,2.6,36,0.00,CLR,,0.00,WeatherDisplay:10.37,2013-01-03 23:45:00,
2013-01-04 10:50:00,88.0,56.1,29.38,NE,45,2.3,2.3,34,0.00,CLR,,0.00,WeatherDisplay:10.37,2013-01-03 23:50:00,
2013-01-04 10:55:00,89.2,57.2,29.38,NNE,22,3.5,3.6,34,0.00,CLR,,0.00,WeatherDisplay:10.37,2013-01-03 23:55:00,
2013-01-04 11:00:00,89.6,56.7,29.38,ENE,68,5.8,5.8,33,0.00,CLR,,0.00,WeatherDisplay:10.37,2013-01-04 00:00:00,
2013-01-04 11:05:00,90.0,57.0,29.38,NNE,22,5.8,5.8,33,0.00,CLR,,0.00,WeatherDisplay:10.37,2013-01-04 00:05:00,
2013-01-04 11:10:00,90.1,55.4,29.38,ESE,112,6.4,6.4,31,0.00,CLR,,0.00,WeatherDisplay:10.37,2013-01-04 00:10:00,
2013-01-04 11:15:00,89.8,55.1,29.38,ESE,112,3.5,3.5,31,0.00,CLR,,0.00,WeatherDisplay:10.37,2013-01-04 00:15:00,
2013-01-04 11:20:00,90.9,56.0,29.38,NNW,338,3.5,3.5,31,0.00,CLR,,0.00,WeatherDisplay:10.37,2013-01-04 00:20:00,
2013-01-04 11:25:00,91.8,56.8,29.38,NE,45,4.6,4.6,31,0.00,CLR,,0.00,WeatherDisplay:10.37,2013-01-04 00:25:00,
2013-01-04 11:30:00,91.9,56.1,29.38,NE,45,8.5,8.5,30,0.00,CLR,,0.00,WeatherDisplay:10.37,2013-01-04 00:30:00,
2013-01-04 11:35:00,91.9,56.1,29.35,NE,45,5.8,5.8,30,0.00,CLR,,0.00,WeatherDisplay:10.37,2013-01-04 00:35:00,
2013-01-04 11:40:00,92.1,55.3,29.35,NNE,22,3.5,3.5,29,0.00,CLR,,0.00,WeatherDisplay:10.37,2013-01-04 00:40:00,
2013-01-04 11:45:00,91.9,55.1,29.35,ENE,68,5.9,5.9,29,0.00,CLR,,0.00,WeatherDisplay:10.37,2013-01-04 00:45:00,
2013-01-04 11:50:00,92.1,55.3,29.35,SE,135,7.8,7.8,29,0.00,CLR,,0.00,WeatherDisplay:10.37,2013-01-04 00:50:00,
2013-01-04 11:55:00,92.8,55.9,29.35,ESE,112,6.4,6.4,29,0.00,CLR,,0.00,WeatherDisplay:10.37,2013-01-04 00:55:00,
2013-01-04 12:00:00,92.7,54.8,29.35,ENE,68,3.8,3.8,28,0.00,CLR,,0.00,WeatherDisplay:10.37,2013-01-04 01:00:00,
2013-01-04 12:05:00,93.2,55.2,29.35,ESE,112,3.5,3.5,28,0.00,CLR,,0.00,WeatherDisplay:10.37,2013-01-04 01:05:00,
2013-01-04 12:10:00,93.6,55.6,29.35,SSW,202,4.6,4.6,28,0.00,CLR,,0.00,WeatherDisplay:10.37,2013-01-04 01:10:00,
2013-01-04 12:15:00,93.7,54.7,29.35,ESE,112,5.8,5.8,27,0.00,CLR,,0.00,WeatherDisplay:10.37,2013-01-04 01:15:00,
2013-01-04 12:20:00,93.7,54.7,29.32,East,90,5.8,5.8,27,0.00,CLR,,0.00,WeatherDisplay:10.37,2013-01-04 01:20:00,
2013-01-04 12:25:00,94.1,55.0,29.32,NNE,22,2.9,2.9,27,0.00,CLR,,0.00,WeatherDisplay:10.37,2013-01-04 01:25:00,
2013-01-04 12:30:00,94.6,55.5,29.32,NE,45,4.6,4.6,27,0.00,CLR,,0.00,WeatherDisplay:10.37,2013-01-04 01:30:00,
2013-01-04 12:35:00,94.5,55.3,29.32,ENE,68,4.6,4.6,27,0.00,CLR,,0.00,WeatherDisplay:10.37,2013-01-04 01:35:00,
2013-01-04 12:40:00,94.3,55.2,29.32,NE,45,4.6,4.6,27,0.00,CLR,,0.00,WeatherDisplay:10.37,2013-01-04 01:40:00,
2013-01-04 12:45:00,94.3,55.2,29.32,NE,45,4.9,4.9,27,0.00,CLR,,0.00,WeatherDisplay:10.37,2013-01-04 01:45:00,
2013-01-04 12:50:00,94.6,55.5,29.32,NE,45,3.5,3.5,27,0.00,CLR,,0.00,WeatherDisplay:10.37,2013-01-04 01:50:00,
2013-01-04 12:55:00,94.5,54.3,29.32,ESE,112,3.5,3.8,26,0.00,CLR,,0.00,WeatherDisplay:10.37,2013-01-04 01:55:00,
2013-01-04 13:00:00,94.6,54.4,29.32,SSE,158,8.5,8.5,26,0.00,CLR,,0.00,WeatherDisplay:10.37,2013-01-04 02:00:00,
2013-01-04 13:05:00,94.5,53.2,29.29,SE,135,6.4,6.4,25,0.00,CLR,,0.00,WeatherDisplay:10.37,2013-01-04 02:05:00,
2013-01-04 13:10:00,95.0,53.7,29.29,NE,45,4.6,4.6,25,0.00,CLR,,0.00,WeatherDisplay:10.37,2013-01-04 02:10:00,
2013-01-04 13:15:00,95.2,53.8,29.29,ENE,68,3.5,3.5,25,0.00,CLR,,0.00,WeatherDisplay:10.37,2013-01-04 02:15:00,
2013-01-04 13:20:00,95.0,52.6,29.29,ESE,112,4.6,4.6,24,0.00,CLR,,0.00,WeatherDisplay:10.37,2013-01-04 02:20:00,
2013-01-04 13:25:00,95.5,53.0,29.29,SE,135,4.6,4.6,24,0.00,CLR,,0.00,WeatherDisplay:10.37,2013-01-04 02:25:00,
2013-01-04 13:30:00,96.3,53.6,29.29,NE,45,4.9,4.9,24,0.00,CLR,,0.00,WeatherDisplay:10.37,2013-01-04 02:30:00,
2013-01-04 13:35:00,96.1,52.3,29.26,East,90,3.5,3.5,23,0.00,CLR,,0.00,WeatherDisplay:10.37,2013-01-04 02:35:00,
2013-01-04 13:40:00,96.1,51.1,29.26,ESE,112,8.1,8.1,22,0.00,CLR,,0.00,WeatherDisplay:10.37,2013-01-04 02:40:00,
2013-01-04 13:45:00,96.6,52.7,29.26,NE,45,5.8,5.8,23,0.00,CLR,,0.00,WeatherDisplay:10.37,2013-01-04 02:45:00,
2013-01-04 13:50:00,97.2,52.0,29.24,SE,135,5.8,5.8,22,0.00,CLR,,0.00,WeatherDisplay:10.37,2013-01-04 02:50:00,
2013-01-04 13:55:00,96.8,50.4,29.24,ENE,68,4.6,4.6,21,0.00,CLR,,0.00,WeatherDisplay:10.37,2013-01-04 02:55:00,
2013-01-04 14:00:00,97.5,52.3,29.24,NE,45,6.9,6.9,22,0.00,CLR,,0.00,WeatherDisplay:10.37,2013-01-04 03:00:00,
2013-01-04 14:05:00,97.5,51.0,29.26,ESE,112,5.8,5.8,21,0.00,CLR,,0.00,WeatherDisplay:10.37,2013-01-04 03:05:00,
2013-01-04 14:10:00,97.5,51.0,29.26,East,90,3.6,3.8,21,0.00,CLR,,0.00,WeatherDisplay:10.37,2013-01-04 03:10:00,
2013-01-04 14:15:00,97.0,50.6,29.26,ENE,68,5.8,5.8,21,0.00,CLR,,0.00,WeatherDisplay:10.37,2013-01-04 03:15:00,
2013-01-04 14:20:00,96.8,50.4,29.24,ESE,112,8.1,8.1,21,0.00,CLR,,0.00,WeatherDisplay:10.37,2013-01-04 03:20:00,
2013-01-04 14:25:00,97.3,50.9,29.24,ESE,112,4.6,4.6,21,0.00,CLR,,0.00,WeatherDisplay:10.37,2013-01-04 03:25:00,
2013-01-04 14:30:00,97.3,50.9,29.24,NE,45,4.6,4.6,21,0.00,CLR,,0.00,WeatherDisplay:10.37,2013-01-04 03:30:00,
2013-01-04 14:35:00,97.0,50.6,29.24,East,90,4.0,4.3,21,0.00,CLR,,0.00,WeatherDisplay:10.37,2013-01-04 03:35:00,
2013-01-04 14:40:00,97.2,50.7,29.24,ESE,112,6.0,6.0,21,0.00,CLR,,0.00,WeatherDisplay:10.37,2013-01-04 03:40:00,
2013-01-04 14:45:00,97.0,49.3,29.24,East,90,5.8,5.8,20,0.00,CLR,,0.00,WeatherDisplay:10.37,2013-01-04 03:45:00,
2013-01-04 14:50:00,97.3,50.9,29.24,NE,45,4.9,4.9,21,0.00,CLR,,0.00,WeatherDisplay:10.37,2013-01-04 03:50:00,
2013-01-04 14:55:00,97.2,50.7,29.24,SE,135,6.9,6.9,21,0.00,CLR,,0.00,WeatherDisplay:10.37,2013-01-04 03:55:00,
2013-01-04 15:00:00,96.8,49.1,29.24,ENE,68,4.6,4.6,20,0.00,CLR,,0.00,WeatherDisplay:10.37,2013-01-04 04:00:00,
2013-01-04 15:05:00,97.2,50.7,29.20,ESE,112,5.9,5.9,21,0.00,CLR,,0.00,WeatherDisplay:10.37,2013-01-04 04:05:00,
2013-01-04 15:10:00,97.0,49.3,29.20,ENE,68,3.5,3.5,20,0.00,CLR,,0.00,WeatherDisplay:10.37,2013-01-04 04:10:00,
2013-01-04 15:15:00,97.0,49.3,29.20,ESE,112,6.9,6.9,20,0.00,CLR,,0.00,WeatherDisplay:10.37,2013-01-04 04:15:00,
2013-01-04 15:20:00,96.8,49.1,29.20,ENE,68,5.8,5.8,20,0.00,CLR,,0.00,WeatherDisplay:10.37,2013-01-04 04:20:00,
2013-01-04 15:25:00,96.8,50.4,29.20,NNE,22,2.4,2.4,21,0.00,CLR,,0.00,WeatherDisplay:10.37,2013-01-04 04:25:00,
2013-01-04 15:30:00,96.6,50.3,29.20,NE,45,9.2,9.2,21,0.00,CLR,,0.00,WeatherDisplay:10.37,2013-01-04 04:30:00,
2013-01-04 15:35:00,97.0,50.6,29.18,NNE,22,4.6,4.6,21,0.00,CLR,,0.00,WeatherDisplay:10.37,2013-01-04 04:35:00,
2013-01-04 15:40:00,95.7,53.2,29.18,East,90,6.9,6.9,24,0.00,CLR,,0.00,WeatherDisplay:10.37,2013-01-04 04:40:00,
2013-01-04 15:45:00,95.5,55.2,29.18,NE,45,4.6,4.7,26,0.00,CLR,,0.00,WeatherDisplay:10.37,2013-01-04 04:45:00,
2013-01-04 15:50:00,94.6,55.5,29.20,East,90,5.8,5.8,27,0.00,CLR,,0.00,WeatherDisplay:10.37,2013-01-04 04:50:00,
2013-01-04 15:55:00,94.3,56.2,29.20,SE,135,5.8,5.8,28,0.00,CLR,,0.00,WeatherDisplay:10.37,2013-01-04 04:55:00,
2013-01-04 16:00:00,94.1,56.0,29.20,NE,45,3.5,3.5,28,0.00,CLR,,0.00,WeatherDisplay:10.37,2013-01-04 05:00:00,
2013-01-04 16:01:00,94.3,56.2,29.20,NE,45,3.6,3.8,28,0.00,CLR,,0.00,WeatherDisplay:10.37,2013-01-04 05:01:00,
2013-01-04 16:06:00,94.3,56.2,29.18,ENE,68,4.9,4.9,28,0.00,CLR,,0.00,WeatherDisplay:10.37,2013-01-04 05:06:00,
2013-01-04 16:11:00,93.2,55.2,29.18,NE,45,4.5,4.5,28,0.00,CLR,,0.00,WeatherDisplay:10.37,2013-01-04 05:11:00,
2013-01-04 16:16:00,92.5,55.6,29.18,ENE,68,5.8,5.8,29,0.00,CLR,,0.00,WeatherDisplay:10.37,2013-01-04 05:16:00,
2013-01-04 16:21:00,92.1,55.3,29.24,ENE,68,5.8,5.8,29,0.00,CLR,,0.00,WeatherDisplay:10.37,2013-01-04 05:21:00,
2013-01-04 16:26:00,91.9,55.1,29.24,East,90,5.6,5.6,29,0.00,CLR,,0.00,WeatherDisplay:10.37,2013-01-04 05:26:00,
2013-01-04 16:31:00,91.6,55.8,29.24,NE,45,11.5,11.5,30,0.00,CLR,,0.00,WeatherDisplay:10.37,2013-01-04 05:31:00,
2013-01-04 16:36:00,91.4,55.6,29.20,ESE,112,5.8,5.8,30,0.00,CLR,,0.00,WeatherDisplay:10.37,2013-01-04 05:36:00,
2013-01-04 16:41:00,91.6,55.8,29.20,NNE,22,4.6,4.6,30,0.00,CLR,,0.00,WeatherDisplay:10.37,2013-01-04 05:41:00,
2013-01-04 16:46:00,91.2,56.4,29.20,NE,45,5.8,5.8,31,0.00,CLR,,0.00,WeatherDisplay:10.37,2013-01-04 05:46:00,
2013-01-04 16:51:00,90.9,56.0,29.20,NNE,22,4.0,4.0,31,0.00,CLR,,0.00,WeatherDisplay:10.37,2013-01-04 05:51:00,
2013-01-04 16:56:00,90.3,55.6,29.20,ENE,68,5.8,5.8,31,0.00,CLR,,0.00,WeatherDisplay:10.37,2013-01-04 05:56:00,
2013-01-04 17:01:00,90.1,56.3,29.20,SE,135,10.4,10.4,32,0.00,CLR,,0.00,WeatherDisplay:10.37,2013-01-04 06:01:00,
2013-01-04 17:06:00,90.1,56.3,29.20,East,90,5.9,5.9,32,0.00,CLR,,0.00,WeatherDisplay:10.37,2013-01-04 06:06:00,
2013-01-04 17:11:00,89.6,55.8,29.20,NNE,22,5.8,5.8,32,0.00,CLR,,0.00,WeatherDisplay:10.37,2013-01-04 06:11:00,
2013-01-04 17:16:00,89.2,56.4,29.20,East,90,6.9,6.9,33,0.00,CLR,,0.00,WeatherDisplay:10.37,2013-01-04 06:16:00,
2013-01-04 17:21:00,89.1,56.2,29.18,NE,45,4.9,4.9,33,0.00,CLR,,0.00,WeatherDisplay:10.37,2013-01-04 06:21:00,
2013-01-04 17:26:00,88.5,55.7,29.18,SSE,158,8.1,8.1,33,0.00,CLR,,0.00,WeatherDisplay:10.37,2013-01-04 06:26:00,
2013-01-04 17:31:00,88.3,56.4,29.20,NE,45,4.6,4.6,34,0.00,CLR,,0.00,WeatherDisplay:10.37,2013-01-04 06:31:00,
2013-01-04 17:36:00,88.2,56.3,29.20,NE,45,5.8,5.8,34,0.00,CLR,,0.00,WeatherDisplay:10.37,2013-01-04 06:36:00,
2013-01-04 17:41:00,87.4,56.4,29.20,East,90,9.2,9.2,35,0.00,CLR,,0.00,WeatherDisplay:10.37,2013-01-04 06:41:00,
2013-01-04 17:46:00,86.9,56.7,29.20,ESE,112,8.1,8.1,36,0.00,CLR,,0.00,WeatherDisplay:10.37,2013-01-04 06:46:00,
2013-01-04 17:51:00,86.7,56.6,29.20,ENE,68,5.8,5.8,36,0.00,CLR,,0.00,WeatherDisplay:10.37,2013-01-04 06:51:00,
2013-01-04 17:56:00,86.2,56.9,29.20,ESE,112,6.9,6.9,37,0.00,CLR,,0.00,WeatherDisplay:10.37,2013-01-04 06:56:00,
2013-01-04 18:01:00,85.8,57.3,29.20,ESE,112,8.1,8.1,38,0.00,CLR,,0.00,WeatherDisplay:10.37,2013-01-04 07:01:00,
2013-01-04 18:06:00,85.6,57.1,29.20,ENE,68,4.7,4.7,38,0.00,CLR,,0.00,WeatherDisplay:10.37,2013-01-04 07:06:00,
2013-01-04 18:12:00,85.5,57.7,29.20,East,90,6.9,6.9,39,0.00,CLR,,0.00,WeatherDisplay:10.37,2013-01-04 07:12:00,
2013-01-04 18:17:00,85.1,57.4,29.24,SSW,202,6.9,6.9,39,0.00,CLR,,0.00,WeatherDisplay:10.37,2013-01-04 07:17:00,
2013-01-04 18:22:00,84.7,57.0,29.24,East,90,9.2,9.2,39,0.00,CLR,,0.00,WeatherDisplay:10.37,2013-01-04 07:22:00,
2013-01-04 18:27:00,84.4,56.7,29.24,East,90,8.1,8.1,39,0.00,CLR,,0.00,WeatherDisplay:10.37,2013-01-04 07:27:00,
2013-01-04 18:32:00,84.0,57.1,29.26,ENE,68,5.8,5.8,40,0.00,CLR,,0.00,WeatherDisplay:10.37,2013-01-04 07:32:00,
2013-01-04 18:37:00,83.8,56.9,29.26,SSE,158,5.8,5.8,40,0.00,CLR,,0.00,WeatherDisplay:10.37,2013-01-04 07:37:00,
2013-01-04 18:42:00,83.7,56.8,29.26,East,90,8.1,8.1,40,0.00,CLR,,0.00,WeatherDisplay:10.37,2013-01-04 07:42:00,
2013-01-04 18:47:00,83.3,57.1,29.26,ESE,112,6.9,6.9,41,0.00,CLR,,0.00,WeatherDisplay:10.37,2013-01-04 07:47:00,
2013-01-04 18:52:00,82.9,56.8,29.26,SE,135,6.9,6.9,41,0.00,CLR,,0.00,WeatherDisplay:10.37,2013-01-04 07:52:00,
2013-01-04 18:57:00,82.6,56.5,29.26,NE,45,4.6,4.6,41,0.00,CLR,,0.00,WeatherDisplay:10.37,2013-01-04 07:57:00,
2013-01-04 19:02:00,82.6,57.2,29.26,NE,45,5.8,5.8,42,0.00,CLR,,0.00,WeatherDisplay:10.37,2013-01-04 08:02:00,
2013-01-04 19:07:00,82.2,56.8,29.26,East,90,5.8,5.8,42,0.00,CLR,,0.00,WeatherDisplay:10.37,2013-01-04 08:07:00,
2013-01-04 19:12:00,82.0,56.7,29.26,NE,45,5.8,6.0,42,0.00,CLR,,0.00,WeatherDisplay:10.37,2013-01-04 08:12:00,
2013-01-04 19:17:00,82.0,57.3,29.26,East,90,2.3,3.3,43,0.00,CLR,,0.00,WeatherDisplay:10.37,2013-01-04 08:17:00,
2013-01-04 19:22:00,81.7,57.0,29.26,East,90,4.6,4.6,43,0.00,CLR,,0.00,WeatherDisplay:10.37,2013-01-04 08:22:00,
2013-01-04 19:27:00,81.5,56.8,29.26,ESE,112,6.9,6.9,43,0.00,CLR,,0.00,WeatherDisplay:10.37,2013-01-04 08:27:00,
2013-01-04 19:32:00,81.3,56.7,29.24,ESE,112,5.8,5.8,43,0.00,CLR,,0.00,WeatherDisplay:10.37,2013-01-04 08:32:00,
2013-01-04 19:37:00,81.3,57.3,29.24,East,90,2.3,2.3,44,0.00,CLR,,0.00,WeatherDisplay:10.37,2013-01-04 08:37:00,
2013-01-04 19:42:00,81.1,57.2,29.24,ESE,112,2.4,0.0,44,0.00,CLR,,0.00,WeatherDisplay:10.37,2013-01-04 08:42:00,
2013-01-04 19:47:00,80.8,58.1,29.26,South,180,5.8,5.8,46,0.00,CLR,,0.00,WeatherDisplay:10.37,2013-01-04 08:47:00,
2013-01-04 19:52:00,80.6,57.3,29.26,ENE,68,2.3,2.3,45,0.00,CLR,,0.00,WeatherDisplay:10.37,2013-01-04 08:52:00,
2013-01-04 19:57:00,80.4,57.7,29.26,NE,45,2.3,2.3,46,0.00,CLR,,0.00,WeatherDisplay:10.37,2013-01-04 08:57:00,
2013-01-04 20:02:00,80.2,57.6,29.26,NE,45,2.6,2.6,46,0.00,CLR,,0.00,WeatherDisplay:10.37,2013-01-04 09:02:00,
2013-01-04 20:07:00,80.1,57.4,29.26,ESE,112,2.6,0.0,46,0.00,CLR,,0.00,WeatherDisplay:10.37,2013-01-04 09:07:00,
2013-01-04 20:12:00,79.9,57.8,29.26,NE,45,4.6,4.6,47,0.00,CLR,,0.00,WeatherDisplay:10.37,2013-01-04 09:12:00,
2013-01-04 20:17:00,79.5,58.1,29.29,East,90,3.5,3.5,48,0.00,CLR,,0.00,WeatherDisplay:10.37,2013-01-04 09:17:00,
2013-01-04 20:22:00,79.3,57.9,29.29,East,90,2.9,2.9,48,0.00,CLR,,0.00,WeatherDisplay:10.37,2013-01-04 09:22:00,
2013-01-04 20:27:00,79.2,57.8,29.29,ENE,68,2.3,2.3,48,0.00,CLR,,0.00,WeatherDisplay:10.37,2013-01-04 09:27:00,
2013-01-04 20:32:00,78.8,58.0,29.32,ESE,112,4.3,4.3,49,0.00,CLR,,0.00,WeatherDisplay:10.37,2013-01-04 09:32:00,
2013-01-04 20:37:00,78.6,58.4,29.32,ENE,68,2.3,2.3,50,0.00,CLR,,0.00,WeatherDisplay:10.37,2013-01-04 09:37:00,
2013-01-04 20:42:00,78.4,58.3,29.32,ENE,68,3.5,3.5,50,0.00,CLR,,0.00,WeatherDisplay:10.37,2013-01-04 09:42:00,
2013-01-04 20:47:00,78.3,58.6,29.29,ESE,112,3.5,3.5,51,0.00,CLR,,0.00,WeatherDisplay:10.37,2013-01-04 09:47:00,
2013-01-04 20:52:00,77.9,58.3,29.29,East,90,4.6,4.6,51,0.00,CLR,,0.00,WeatherDisplay:10.37,2013-01-04 09:52:00,
2013-01-04 20:57:00,77.7,58.7,29.29,East,90,4.6,4.6,52,0.00,CLR,,0.00,WeatherDisplay:10.37,2013-01-04 09:57:00,
2013-01-04 21:02:00,77.5,58.5,29.32,ENE,68,3.5,3.5,52,0.00,CLR,,0.00,WeatherDisplay:10.37,2013-01-04 10:02:00,
2013-01-04 21:07:00,77.2,58.7,29.32,ESE,112,3.5,3.5,53,0.00,CLR,,0.00,WeatherDisplay:10.37,2013-01-04 10:07:00,
2013-01-04 21:12:00,77.0,58.6,29.32,ENE,68,4.6,4.6,53,0.00,CLR,,0.00,WeatherDisplay:10.37,2013-01-04 10:12:00,
2013-01-04 21:17:00,77.0,59.1,29.32,ESE,112,3.5,3.5,54,0.00,CLR,,0.00,WeatherDisplay:10.37,2013-01-04 10:17:00,
2013-01-04 21:22:00,76.6,59.3,29.32,ENE,68,3.1,3.1,55,0.00,CLR,,0.00,WeatherDisplay:10.37,2013-01-04 10:22:00,
2013-01-04 21:27:00,76.6,59.3,29.32,ENE,68,1.2,1.2,55,0.00,CLR,,0.00,WeatherDisplay:10.37,2013-01-04 10:27:00,
2013-01-04 21:32:00,76.5,59.1,29.32,ESE,112,0.0,0.0,55,0.00,CLR,,0.00,WeatherDisplay:10.37,2013-01-04 10:32:00,
2013-01-04 21:37:00,76.1,58.8,29.32,ESE,112,3.5,3.5,55,0.00,CLR,,0.00,WeatherDisplay:10.37,2013-01-04 10:37:00,
2013-01-04 21:42:00,75.9,59.1,29.32,ENE,68,3.5,3.5,56,0.00,CLR,,0.00,WeatherDisplay:10.37,2013-01-04 10:42:00,
2013-01-04 21:47:00,75.9,59.1,29.32,ESE,112,2.4,2.4,56,0.00,CLR,,0.00,WeatherDisplay:10.37,2013-01-04 10:47:00,
2013-01-04 21:52:00,75.7,58.9,29.32,ESE,112,3.6,3.6,56,0.00,CLR,,0.00,WeatherDisplay:10.37,2013-01-04 10:52:00,
2013-01-04 21:57:00,75.4,59.1,29.32,East,90,3.5,0.0,57,0.00,CLR,,0.00,WeatherDisplay:10.37,2013-01-04 10:57:00,
2013-01-04 22:02:00,75.4,59.1,29.32,NE,45,4.6,4.6,57,0.00,CLR,,0.00,WeatherDisplay:10.37,2013-01-04 11:02:00,
2013-01-04 22:07:00,75.2,58.9,29.32,ENE,68,1.2,1.2,57,0.00,CLR,,0.00,WeatherDisplay:10.37,2013-01-04 11:07:00,
2013-01-04 22:12:00,75.2,58.9,29.32,ESE,112,4.6,4.6,57,0.00,CLR,,0.00,WeatherDisplay:10.37,2013-01-04 11:12:00,
2013-01-04 22:17:00,75.0,59.2,29.32,ESE,112,2.9,2.9,58,0.00,CLR,,0.00,WeatherDisplay:10.37,2013-01-04 11:17:00,
2013-01-04 22:22:00,74.8,59.1,29.32,ENE,68,2.3,2.3,58,0.00,CLR,,0.00,WeatherDisplay:10.37,2013-01-04 11:22:00,
2013-01-04 22:27:00,74.8,59.1,29.32,ENE,68,3.5,0.0,58,0.00,CLR,,0.00,WeatherDisplay:10.37,2013-01-04 11:27:00,
2013-01-04 22:32:00,74.8,58.6,29.32,East,90,0.0,0.0,57,0.00,CLR,,0.00,WeatherDisplay:10.37,2013-01-04 11:32:00,
2013-01-04 22:37:00,74.7,58.9,29.32,ESE,112,2.3,2.3,58,0.00,CLR,,0.00,WeatherDisplay:10.37,2013-01-04 11:37:00,
2013-01-04 22:42:00,74.3,58.1,29.32,ENE,68,0.0,0.0,57,0.00,CLR,,0.00,WeatherDisplay:10.37,2013-01-04 11:42:00,
2013-01-04 22:47:00,74.1,57.9,29.32,ENE,68,0.0,0.0,57,0.00,CLR,,0.00,WeatherDisplay:10.37,2013-01-04 11:47:00,
2013-01-04 22:52:00,73.9,57.7,29.32,ENE,68,2.4,2.4,57,0.00,CLR,,0.00,WeatherDisplay:10.37,2013-01-04 11:52:00,
2013-01-04 22:57:00,73.8,57.6,29.32,ENE,68,2.3,2.3,57,0.00,CLR,,0.00,WeatherDisplay:10.37,2013-01-04 11:57:00,
2013-01-04 23:02:00,73.8,57.6,29.32,ENE,68,0.0,0.0,57,0.00,CLR,,0.00,WeatherDisplay:10.37,2013-01-04 12:02:00,
2013-01-04 23:07:00,73.6,57.4,29.32,NNE,22,2.3,0.0,57,0.00,CLR,,0.00,WeatherDisplay:10.37,2013-01-04 12:07:00,
2013-01-04 23:12:00,73.4,57.2,29.32,ENE,68,0.0,0.0,57,0.00,CLR,,0.00,WeatherDisplay:10.37,2013-01-04 12:12:00,
2013-01-04 23:17:00,73.4,57.7,29.35,NE,45,0.0,0.0,58,0.00,CLR,,0.00,WeatherDisplay:10.37,2013-01-04 12:17:00,
2013-01-04 23:22:00,73.2,57.6,29.35,East,90,0.0,0.0,58,0.00,CLR,,0.00,WeatherDisplay:10.37,2013-01-04 12:22:00,
2013-01-04 23:27:00,73.2,57.6,29.35,NNE,22,2.3,0.0,58,0.00,CLR,,0.00,WeatherDisplay:10.37,2013-01-04 12:27:00,
2013-01-04 23:32:00,73.0,57.4,29.32,NNE,22,0.0,0.0,58,0.00,CLR,,0.00,WeatherDisplay:10.37,2013-01-04 12:32:00,
2013-01-04 23:37:00,73.0,57.4,29.32,NE,45,0.0,0.0,58,0.00,CLR,,0.00,WeatherDisplay:10.37,2013-01-04 12:37:00,
2013-01-04 23:42:00,72.9,57.2,29.32,ESE,112,0.0,0.0,58,0.00,CLR,,0.00,WeatherDisplay:10.37,2013-01-04 12:42:00,
2013-01-04 23:47:00,72.7,57.0,29.35,ENE,68,0.0,0.0,58,0.00,CLR,,0.00,WeatherDisplay:10.37,2013-01-04 12:47:00,
2013-01-04 23:52:00,72.7,57.5,29.35,ESE,112,0.0,0.0,59,0.00,CLR,,0.00,WeatherDisplay:10.37,2013-01-04 12:52:00,
2013-01-04 23:57:00,72.5,57.4,29.35,NE,45,0.0,0.0,59,0.00,CLR,,0.00,WeatherDisplay:10.37,2013-01-04 12:57:00,